Date,TemperatureHighF,TemperatureAvgF,TemperatureLowF,DewpointHighF,DewpointAvgF,DewpointLowF,HumidityHigh,HumidityAvg,HumidityLow,PressureMaxIn,PressureMinIn,WindSpeedMaxMPH,WindSpeedAvgMPH,GustSpeedMaxMPH,PrecipitationSumIn
2013-1-1,38.6,35.1,30.0,28.0,25.3,20.4,83,68,49,29.99,29.89,8,2,18,0.00
2013-1-2,33.4,28.7,21.3,26.1,16.9,9.2,79,62,39,30.21,29.97,6,2,13,0.00
2013-1-3,38.5,25.4,13.6,19.0,14.4,9.9,88,65,38,30.23,30.13,10,2,21,0.00
2013-1-4,36.5,31.5,28.5,18.4,16.3,14.4,60,53,45,30.20,30.11,11,5,28,0.00
2013-1-5,43.3,32.4,25.8,24.9,18.5,14.3,82,58,32,30.36,30.14,8,2,22,0.00
2013-1-6,40.9,34.6,27.3,27.5,24.9,23.0,86,69,50,30.15,30.00,7,2,15,0.00
2013-1-7,39.5,32.3,18.9,27.3,21.6,15.7,87,66,47,30.43,30.14,8,2,20,0.00
2013-1-8,51.9,27.2,14.8,29.6,20.1,11.9,91,78,29,30.41,30.31,5,0,12,0.00
2013-1-9,58.0,35.5,21.8,43.1,28.4,19.6,94,77,48,30.42,30.21,10,2,26,0.00
2013-1-10,51.9,40.3,28.8,31.2,26.9,23.9,85,60,36,30.58,30.42,5,2,16,0.00
2013-1-11,49.6,39.0,30.0,45.1,34.2,26.6,94,84,53,30.42,30.04,15,2,24,0.02
2013-1-12,68.4,46.9,36.9,51.2,42.1,35.9,98,85,50,30.12,30.03,5,1,8,0.00
2013-1-13,58.4,47.0,37.5,49.8,44.0,35.9,98,90,72,30.04,29.89,4,1,8,0.00
2013-1-14,55.0,46.1,34.7,53.9,39.2,28.8,97,78,59,30.28,29.89,10,2,17,0.25
2013-1-15,36.8,34.3,31.2,32.9,31.4,28.9,94,89,77,30.32,30.10,3,1,7,0.56
2013-1-16,37.3,34.1,31.0,35.5,32.6,29.4,95,94,92,30.11,29.79,12,2,22,0.27
2013-1-17,38.6,34.7,30.3,35.5,27.1,20.2,96,74,51,30.11,29.97,5,1,12,0.00
2013-1-18,36.6,29.0,21.6,23.7,13.2,4.5,78,53,27,30.48,30.09,7,3,23,0.00
2013-1-19,56.6,36.1,19.5,25.2,18.2,10.9,90,56,17,30.32,29.88,13,3,24,0.00
2013-1-20,50.2,37.8,23.6,27.3,16.0,0.5,76,45,14,30.05,29.78,14,4,37,0.00
2013-1-21,42.6,26.8,18.1,17.5,12.2,3.9,80,57,21,30.05,29.78,10,2,25,0.00
2013-1-22,20.6,13.6,8.8,4.4,-7.0,-11.5,54,39,27,30.28,29.96,11,4,31,0.00
2013-1-23,20.6,14.9,9.0,9.9,-3.7,-8.8,75,44,27,30.33,30.09,11,2,29,0.00
2013-1-24,16.4,15.3,14.3,11.1,10.5,10.0,84,81,76,30.12,30.05,2,0,5,0.01
2013-1-25,20.5,13.4,4.3,14.7,6.6,-1.4,84,75,45,30.52,30.04,11,1,19,0.05
2013-1-26,33.7,23.9,12.9,20.9,16.0,8.7,88,72,57,30.44,30.05,5,2,17,0.00
2013-1-27,37.9,26.8,16.7,20.6,14.4,9.2,80,60,40,30.57,30.39,4,1,9,0.00
2013-1-28,49.9,34.6,27.2,44.6,31.2,18.4,96,88,69,30.40,30.02,7,1,11,0.08
2013-1-29,69.6,51.4,40.3,55.4,45.9,38.2,98,84,49,30.08,29.88,11,2,19,0.00
2013-1-30,68.8,52.6,38.5,56.3,48.7,36.9,99,88,62,29.88,29.21,21,4,43,1.07
2013-1-31,50.7,33.3,25.8,49.6,20.3,7.3,96,59,44,29.85,29.13,14,7,36,0.09
2013-2-1,26.4,18.5,7.9,20.0,4.7,-2.7,85,55,37,30.37,29.78,9,3,25,0.00
2013-2-2,27.9,15.9,3.7,19.2,7.5,-1.1,84,70,43,30.37,29.99,9,2,19,0.00
2013-2-3,32.5,26.2,22.1,24.3,17.7,7.0,90,72,47,29.99,29.78,10,2,24,0.00
2013-2-4,35.6,26.4,19.9,25.0,13.7,6.2,90,60,41,30.05,29.85,7,2,22,0.02
2013-2-5,36.8,29.7,23.8,34.2,27.6,21.0,94,92,89,29.89,29.81,4,0,7,0.00
2013-2-6,35.3,27.0,24.1,24.3,21.4,20.0,84,79,61,30.31,30.18,5,0,11,0.00
2013-2-7,34.1,33.8,33.1,23.7,22.6,22.1,68,63,62,30.22,30.15,3,1,9,0.00
2013-2-8,36.8,32.5,30.6,31.3,25.8,21.0,84,77,60,30.01,29.77,10,2,24,0.00
2013-2-10,40.6,38.6,13.6,15.7,14.3,10.5,87,38,31,30.42,30.15,12,9,20,0.00
2013-2-11,65.3,45.5,34.1,45.3,36.8,30.1,91,75,33,30.06,29.67,14,5,30,0.00
2013-2-12,53.5,44.6,26.9,22.1,20.1,15.6,76,42,23,29.94,29.87,5,3,14,0.00
2013-2-13,41.1,40.3,37.0,30.1,24.5,22.4,76,54,47,29.71,29.63,6,4,13,0.00
2013-2-14,44.5,42.5,37.8,28.0,26.0,24.6,65,52,47,29.97,29.93,8,5,17,0.00
2013-2-15,49.1,48.5,47.9,28.4,28.0,27.6,46,45,44,29.94,29.93,2,2,7,0.00
2013-2-16,31.8,26.9,22.4,19.4,10.7,7.3,66,50,44,29.94,29.86,4,2,12,0.00
2013-2-17,24.7,20.7,18.1,10.2,4.8,-0.3,64,50,38,30.22,29.86,10,4,28,0.00
2013-2-18,45.2,26.0,8.6,20.0,8.4,1.7,77,51,22,30.36,30.04,8,2,15,0.00
2013-2-19,52.2,38.6,27.2,34.7,24.5,13.8,84,58,38,30.04,29.64,15,7,28,0.02
2013-2-20,32.8,26.1,19.4,15.0,8.9,4.6,54,48,37,30.17,29.83,12,6,33,0.00
2013-2-21,33.2,22.7,19.2,13.6,9.3,4.4,76,57,41,30.33,30.13,7,3,20,0.00
2013-2-22,32.8,27.4,19.9,25.4,19.6,13.6,79,72,57,30.34,30.10,7,1,14,0.00
2013-2-23,51.1,36.1,27.8,35.4,28.3,24.2,86,74,52,30.10,29.80,6,1,11,0.00
2013-2-24,45.7,33.4,24.7,29.7,22.2,13.2,93,66,32,30.11,29.80,11,2,25,0.00
2013-2-25,42.2,28.1,20.2,19.8,16.2,14.0,83,63,35,30.21,30.11,5,1,13,0.00
2013-2-26,35.5,28.5,19.9,34.0,24.6,14.8,95,85,58,30.17,29.63,7,2,16,0.52
2013-2-27,48.2,38.5,32.1,39.2,31.3,27.5,97,78,46,29.67,29.57,12,2,26,0.01
2013-2-28,37.8,35.4,32.8,30.9,23.9,20.5,88,63,51,29.73,29.61,9,3,26,0.00
2013-3-1,37.6,33.1,28.8,24.8,21.8,18.4,71,63,50,29.90,29.73,6,2,21,0.00
2013-3-2,32.2,27.9,25.1,19.1,16.4,13.7,73,62,51,29.89,29.82,6,2,18,0.00
2013-3-3,33.7,27.7,24.4,15.8,13.3,9.9,66,55,43,29.95,29.84,7,3,21,0.00
2013-3-4,38.8,28.1,21.1,14.7,10.7,7.4,75,49,28,30.06,29.94,9,3,24,0.00
2013-3-5,51.0,35.0,21.1,27.9,16.7,9.4,88,54,20,30.05,29.73,7,2,21,0.11
2013-3-6,35.6,32.0,29.1,31.4,28.2,24.7,95,87,65,30.04,29.66,5,1,13,0.77
2013-3-7,41.3,36.5,33.1,26.5,24.1,21.7,73,61,49,30.19,30.03,7,2,20,0.00
2013-3-8,40.5,33.2,24.5,24.8,22.2,20.2,84,64,51,30.34,30.18,8,3,22,0.00
2013-3-9,55.0,32.7,17.3,28.6,20.9,14.4,90,68,22,30.40,30.24,3,0,7,0.00
2013-3-10,61.2,40.9,23.3,31.4,24.9,19.8,90,60,25,30.28,30.13,10,3,20,0.00
2013-3-11,57.2,51.0,33.2,44.5,29.1,10.8,81,47,18,30.12,29.77,14,7,27,0.00
2013-3-12,56.3,45.9,36.9,48.2,36.0,23.1,93,69,48,29.96,29.68,17,5,29,0.23
2013-3-13,42.2,32.9,25.4,27.4,20.4,12.2,87,61,33,30.07,29.88,12,4,24,0.00
2013-3-14,39.8,31.6,25.3,16.8,12.9,8.9,69,47,31,30.17,30.06,10,4,30,0.00
2013-3-15,54.8,38.6,21.8,30.6,22.2,12.7,81,54,33,30.09,29.78,12,3,28,0.00
2013-3-16,53.6,40.3,31.8,40.4,34.4,26.9,90,80,58,29.87,29.58,7,1,13,0.00
2013-3-17,36.2,33.8,30.7,32.4,25.7,20.4,91,73,58,30.21,29.87,6,1,10,0.00
2013-3-18,33.2,30.1,28.4,28.9,26.3,20.8,91,86,60,30.23,29.84,5,1,21,0.33
2013-3-19,52.0,39.1,30.3,33.7,19.5,0.7,94,55,15,29.93,29.73,21,5,40,0.00
2013-3-20,46.7,36.5,24.8,26.4,11.4,4.6,85,38,20,29.95,29.75,15,5,29,0.00
2013-3-21,30.1,25.4,21.3,25.0,10.6,3.3,83,54,36,29.90,29.77,11,3,24,0.00
2013-3-22,43.3,30.6,22.5,16.2,11.6,7.1,75,47,27,30.00,29.88,9,3,22,0.00
2013-3-23,50.4,32.2,15.9,24.0,15.7,12.2,88,57,22,30.03,29.92,10,2,20,0.00
2013-3-24,37.0,28.1,20.5,27.2,20.9,15.9,92,76,43,29.98,29.60,7,1,11,0.10
2013-3-25,39.9,31.8,28.5,32.4,28.6,26.7,94,88,68,29.68,29.49,5,0,9,0.32
2013-3-26,43.2,35.1,29.1,29.2,25.5,21.5,93,70,44,30.02,29.69,6,2,18,0.00
2013-3-27,40.9,35.4,28.7,27.9,23.6,20.3,75,62,49,30.12,30.01,7,3,21,0.00
2013-3-28,44.2,38.1,33.7,28.6,23.8,21.4,65,56,46,30.22,30.08,8,3,24,0.00
2013-3-29,52.2,41.2,31.9,29.6,24.8,16.8,81,56,26,30.24,30.13,8,2,22,0.00
2013-3-30,57.2,40.1,24.8,27.7,22.3,14.7,87,56,19,30.23,30.06,8,1,16,0.00
2013-3-31,46.1,38.0,29.8,44.4,34.4,22.8,94,87,73,30.06,29.72,6,0,10,0.10
2013-4-1,54.7,40.1,30.7,40.6,29.2,13.2,97,69,35,29.97,29.73,13,3,26,0.00
2013-4-2,43.3,34.4,25.7,17.8,11.1,4.6,65,40,22,30.16,29.97,9,3,20,0.00
2013-4-3,45.8,31.7,18.1,19.8,11.9,4.7,84,50,19,30.38,30.16,9,2,26,0.00
2013-4-4,48.3,32.6,15.6,24.0,12.7,3.9,82,50,20,30.38,30.01,9,4,20,0.00
2013-4-5,61.2,45.4,31.6,34.5,24.3,17.1,86,49,21,30.06,29.83,8,2,21,0.00
2013-4-6,56.9,39.9,21.0,26.1,16.8,6.7,84,46,14,30.29,30.06,9,2,17,0.00
2013-4-7,69.1,52.8,37.2,40.2,31.7,18.5,73,46,30,30.15,29.89,12,6,23,0.00
2013-4-8,76.1,59.1,40.6,44.3,39.9,35.8,87,54,26,30.03,29.86,11,3,22,0.00
2013-4-9,82.2,64.3,46.5,51.7,46.3,41.2,85,56,27,30.04,29.88,10,3,29,0.00
2013-4-10,85.9,66.8,46.4,54.9,47.7,43.0,91,57,24,29.93,29.73,13,3,26,0.00
2013-4-11,81.2,67.1,47.9,54.8,50.1,44.5,92,58,34,29.85,29.62,8,3,17,0.00
2013-4-12,75.3,60.5,47.7,61.0,47.0,31.6,96,66,29,29.77,29.50,8,4,22,0.86
2013-4-13,64.7,52.7,40.9,34.1,29.0,18.6,66,42,20,29.93,29.76,14,5,26,0.00
2013-4-14,67.1,49.3,31.5,40.9,32.8,27.2,91,58,27,30.11,29.93,8,2,13,0.00
2013-4-15,62.7,55.4,48.3,47.9,44.4,40.0,83,67,48,30.18,30.03,11,4,22,0.00
2013-4-16,76.8,64.5,53.9,57.6,52.5,47.2,82,66,45,30.18,30.01,12,7,22,0.17
2013-4-17,73.5,62.3,52.2,59.4,55.4,50.5,97,80,54,30.15,30.05,8,2,15,0.10
2013-4-18,73.9,64.9,57.6,59.9,54.6,50.6,88,71,53,30.14,29.86,14,6,28,0.00
2013-4-19,71.1,62.7,47.6,60.4,51.6,32.7,89,67,54,29.86,29.50,18,9,38,0.52
2013-4-20,54.8,45.7,34.6,33.1,23.9,16.9,70,43,25,30.34,29.76,11,4,27,0.00
2013-4-21,54.1,38.2,25.0,30.3,23.1,14.7,91,59,23,30.55,30.34,8,2,15,0.00
2013-4-22,54.5,40.4,26.0,32.4,26.5,21.0,88,61,32,30.52,30.34,10,3,18,0.00
2013-4-23,61.8,45.0,27.3,42.0,34.4,24.8,93,69,43,30.36,30.06,9,2,15,0.00
2013-4-24,75.1,53.6,33.4,56.6,42.8,31.3,95,71,38,30.06,29.70,16,4,29,0.08
2013-4-25,62.4,49.3,38.9,35.4,26.6,12.1,66,45,15,30.28,30.04,10,3,21,0.00
2013-4-26,64.0,47.9,33.5,36.4,31.4,26.1,88,58,25,30.44,30.28,7,2,28,0.00
2013-4-27,69.3,51.1,30.9,41.9,35.2,28.3,93,60,28,30.38,30.20,9,2,24,0.00
2013-4-28,54.5,47.4,36.6,48.8,42.4,33.7,93,83,70,30.20,30.05,9,2,21,0.24
2013-4-29,62.3,54.7,49.1,52.0,47.9,42.0,91,78,68,30.06,29.96,8,2,15,0.00
2013-4-30,60.2,53.9,50.8,53.1,49.8,47.3,91,86,70,30.25,30.04,8,2,15,0.01
2013-5-1,67.9,56.2,42.8,49.2,38.6,21.3,91,59,20,30.35,30.24,9,2,17,0.00
2013-5-2,67.9,51.2,33.2,44.7,37.8,30.8,93,65,28,30.38,30.27,10,2,18,0.00
2013-5-3,64.8,49.4,34.4,47.2,40.2,32.0,94,74,43,30.33,30.21,12,3,31,0.00
2013-5-4,64.5,49.8,32.8,44.2,38.0,29.5,93,67,39,30.27,30.11,13,3,22,0.00
2013-5-5,62.3,48.4,31.8,41.5,36.4,29.5,95,67,37,30.17,30.07,10,3,18,0.00
2013-5-6,55.3,47.6,37.5,53.0,44.7,34.8,94,90,83,30.13,30.00,6,2,13,0.06
2013-5-7,57.6,55.5,52.5,55.9,53.8,50.0,96,94,89,30.00,29.87,11,4,29,1.06
2013-5-8,66.0,53.2,46.4,54.6,49.0,43.7,97,86,57,29.97,29.88,7,1,19,0.20
2013-5-9,70.1,56.1,43.2,61.2,50.4,41.9,98,83,49,29.99,29.87,6,1,19,0.24
2013-5-10,79.6,60.2,46.7,62.1,53.5,45.4,98,81,36,29.99,29.81,12,2,23,0.42
2013-5-11,69.8,60.7,55.4,62.7,55.1,47.5,98,83,54,29.81,29.69,9,2,18,0.21
2013-5-12,57.3,50.4,36.8,47.6,32.0,18.7,90,52,26,30.01,29.73,9,3,26,0.00
2013-5-13,53.3,43.0,32.9,32.1,26.2,15.8,89,56,25,30.16,30.00,10,3,24,0.00
2013-5-14,61.6,45.6,26.9,44.2,31.7,22.5,93,64,27,30.18,29.97,6,1,15,0.00
2013-5-15,88.8,66.2,40.9,57.7,46.2,38.2,94,56,22,29.98,29.66,13,4,28,0.00
2013-5-16,76.5,68.9,56.2,58.0,52.5,44.4,83,57,32,29.92,29.72,11,4,33,0.00
2013-5-17,79.0,63.6,46.0,58.0,51.4,44.1,96,69,32,30.06,29.91,6,1,9,0.00
2013-5-18,66.4,59.9,51.7,57.9,54.8,49.7,95,84,70,30.14,30.05,7,1,12,0.00
2013-5-19,68.1,61.1,56.2,60.7,56.7,53.9,93,86,72,30.14,30.01,6,1,12,0.00
2013-5-20,81.1,68.6,57.0,66.1,60.9,55.6,96,79,51,30.06,29.90,7,1,12,0.00
2013-5-21,86.5,71.8,56.7,66.8,61.0,55.3,97,73,38,29.94,29.78,6,1,11,0.00
2013-5-22,84.5,68.3,57.8,64.3,60.1,54.4,96,79,36,29.87,29.77,11,2,23,0.27
2013-5-23,77.9,65.6,59.6,64.8,59.8,55.1,97,83,48,29.82,29.68,10,2,16,0.05
2013-5-24,59.6,50.4,41.8,57.5,39.3,28.1,93,67,44,30.19,29.72,7,3,23,0.00
2013-5-25,60.7,48.8,37.3,37.3,30.8,25.7,71,51,31,30.23,30.13,8,3,26,0.00
2013-5-26,68.3,51.3,33.5,39.4,31.8,22.1,92,55,18,30.23,30.13,8,2,20,0.00
2013-5-27,63.1,51.2,33.7,50.9,41.8,31.1,93,72,46,30.26,30.14,6,1,10,0.00
2013-5-28,50.4,50.0,49.4,47.0,46.6,45.8,88,88,88,30.16,30.15,0,0,1,0.00
2013-5-29,85.7,70.0,55.3,63.8,57.8,53.9,97,70,34,30.08,30.02,11,2,23,0.00
2013-5-30,88.2,71.6,55.3,66.2,59.6,53.4,96,70,36,30.15,30.05,7,1,13,0.00
2013-5-31,87.2,71.3,52.6,60.9,56.3,50.3,96,65,29,30.10,29.95,8,2,17,0.00
2013-6-1,87.2,73.3,59.8,65.4,60.2,56.8,93,67,37,29.99,29.83,10,3,18,0.00
2013-6-2,80.3,71.7,65.3,63.9,61.6,59.5,86,71,52,29.83,29.77,7,3,12,0.02
2013-6-3,74.2,65.3,54.1,61.5,57.7,49.5,95,78,57,29.96,29.80,7,1,15,0.01
2013-6-4,74.0,58.2,42.5,50.5,44.1,36.7,95,65,30,30.11,29.96,7,1,13,0.00
2013-6-5,77.2,61.0,44.3,56.9,50.4,42.4,96,72,43,30.13,29.97,9,2,20,0.00
2013-6-6,62.6,60.9,58.3,60.4,57.4,54.1,96,88,81,29.98,29.79,3,0,7,0.80
2013-6-7,65.5,63.0,60.7,63.8,61.5,59.2,97,95,92,29.79,29.63,3,0,8,0.17
2013-6-8,77.4,64.2,54.8,61.9,57.5,53.4,96,81,50,30.07,29.73,7,1,10,0.01
2013-6-9,75.3,65.1,54.4,65.1,59.2,52.7,96,82,61,30.14,30.03,6,1,13,0.00
2013-6-10,64.7,63.8,63.1,63.2,62.3,61.9,96,95,92,30.04,29.93,1,0,4,0.24
2013-6-11,76.0,66.6,56.2,64.3,59.0,55.1,98,78,56,29.83,29.75,8,2,20,0.00
2013-6-12,84.5,71.9,59.5,68.5,61.9,57.1,95,73,44,29.85,29.74,8,1,22,0.00
2013-6-13,79.4,66.5,62.6,65.3,60.5,51.4,94,82,58,29.75,29.46,11,4,29,0.89
2013-6-14,75.6,64.7,55.4,55.1,50.6,46.6,85,62,38,29.98,29.64,6,2,17,0.00
2013-6-15,79.6,63.7,49.5,56.3,50.5,41.4,95,68,27,30.07,29.96,6,1,16,0.00
2013-6-16,76.5,66.2,54.4,61.7,57.0,51.2,92,74,54,30.01,29.86,8,3,17,0.00
2013-6-17,83.6,69.8,58.3,66.2,60.9,56.0,95,76,47,29.92,29.83,6,1,12,0.00
2013-6-18,71.6,66.0,61.2,65.3,62.2,59.5,96,88,75,29.88,29.76,5,1,13,0.56
2013-6-19,74.0,64.4,56.3,60.7,58.0,53.4,96,81,53,30.11,29.86,6,1,13,0.01
2013-6-20,78.3,66.1,56.2,64.5,59.2,53.4,96,80,54,30.19,30.10,8,2,16,0.00
2013-6-21,79.6,67.6,54.7,65.8,59.5,53.1,97,77,55,30.22,30.16,6,2,14,0.00
2013-6-22,84.9,70.3,54.8,65.7,59.4,53.1,96,72,41,30.19,30.06,8,2,15,0.00
2013-6-23,85.3,70.3,57.3,66.5,61.6,55.8,96,77,43,30.14,30.02,5,1,9,0.00
2013-6-24,85.3,73.0,61.8,68.4,63.7,58.5,92,74,44,30.11,30.02,7,2,13,0.00
2013-6-25,87.6,74.5,61.2,67.5,63.2,56.4,95,71,41,30.04,29.89,7,2,18,0.00
2013-6-26,82.0,70.3,60.2,68.4,62.9,56.7,94,79,55,29.91,29.78,9,2,18,0.00
2013-6-27,78.6,71.5,59.5,69.5,63.6,58.2,97,77,62,29.80,29.59,9,2,17,0.01
2013-6-28,82.4,69.5,61.0,69.1,61.7,57.1,96,78,51,29.58,29.45,7,2,26,0.08
2013-6-29,82.8,70.0,59.8,66.5,58.4,53.8,90,69,39,29.67,29.47,7,2,17,0.00
2013-6-30,84.1,68.6,58.9,67.4,62.3,56.7,96,82,46,29.80,29.66,7,1,15,0.26
2013-7-1,81.1,70.7,64.2,67.6,65.2,63.0,97,84,59,29.91,29.78,7,1,17,0.02
2013-7-2,81.4,71.6,63.7,68.2,64.5,62.2,96,79,59,30.09,29.90,10,4,22,0.00
2013-7-3,82.0,72.7,69.1,69.8,65.4,62.8,89,78,62,30.16,30.08,8,4,16,0.01
2013-7-4,84.9,74.2,63.9,72.5,65.6,61.8,97,77,52,30.18,30.09,11,3,21,0.09
2013-7-5,86.1,74.9,62.7,69.5,65.0,61.2,97,74,49,30.15,30.06,10,3,20,0.00
2013-7-6,89.3,75.7,63.4,67.1,64.1,61.2,95,71,41,30.15,30.01,8,2,16,0.00
2013-7-7,87.0,70.9,62.9,69.2,64.3,60.5,95,81,49,30.06,29.94,10,1,19,0.61
2013-7-8,84.3,71.0,61.5,67.2,62.5,58.7,97,78,42,30.09,30.00,7,2,16,0.00
2013-7-9,83.6,71.1,63.5,69.7,65.1,61.3,96,83,55,30.07,29.94,9,2,16,0.01
2013-7-10,85.1,75.8,67.8,71.0,67.4,60.7,92,76,56,29.96,29.79,9,3,15,0.04
2013-7-11,78.6,70.8,63.1,67.8,63.2,61.1,94,78,59,29.93,29.81,5,1,13,0.97
2013-7-12,68.1,64.1,60.7,64.9,62.2,59.6,98,94,87,30.04,29.90,5,0,9,0.52
2013-7-13,79.8,70.4,63.9,69.0,65.2,62.7,97,85,63,30.20,30.03,7,1,11,0.00
2013-7-14,84.1,73.7,65.2,70.3,65.1,62.1,98,77,49,30.29,30.20,9,2,18,0.00
2013-7-15,90.7,75.3,60.2,72.1,65.0,58.8,97,74,43,30.29,30.17,6,1,12,0.00
2013-7-16,90.1,82.6,71.5,72.5,69.8,67.2,90,67,49,30.24,30.15,7,2,13,0.00
2013-7-17,89.5,77.4,66.1,72.2,68.7,64.6,97,77,49,30.21,30.06,6,1,11,0.00
2013-7-18,92.1,78.7,66.8,74.1,69.0,65.3,96,75,46,30.10,29.96,6,1,11,0.00
2013-7-19,91.0,75.9,67.4,74.3,67.5,63.2,96,77,49,29.98,29.83,11,2,21,0.00
2013-7-20,89.0,75.6,65.8,70.2,65.8,62.6,94,74,45,29.87,29.75,8,2,17,0.00
2013-7-21,83.2,71.0,63.1,69.6,64.5,61.1,96,81,55,29.91,29.84,10,1,19,0.00
2013-7-22,84.5,70.7,62.4,71.8,65.6,61.1,97,85,55,29.91,29.71,7,1,12,2.43
2013-7-23,84.3,72.7,66.1,69.7,65.1,58.8,99,80,47,29.72,29.62,6,1,15,0.10
2013-7-24,76.3,67.3,56.0,65.8,59.2,53.1,97,77,50,29.91,29.64,7,2,15,0.00
2013-7-25,74.6,61.8,52.2,57.0,52.9,50.0,97,75,44,30.04,29.91,7,1,12,0.00
2013-7-26,80.5,64.1,47.4,59.6,53.0,46.0,96,71,38,30.08,29.97,4,1,10,0.00
2013-7-27,73.3,64.9,56.2,66.9,61.0,54.6,97,88,68,29.99,29.84,8,2,16,0.03
2013-7-28,83.4,69.6,58.4,64.6,60.0,54.7,96,75,41,29.98,29.81,8,1,16,0.00
2013-7-29,75.4,62.9,49.4,55.8,51.6,47.3,96,71,38,30.15,29.97,6,1,13,0.00
2013-7-30,79.2,64.6,50.4,62.3,55.1,48.7,96,74,43,30.20,30.10,5,1,10,0.00
2013-7-31,78.1,64.7,54.8,65.5,58.9,53.4,96,83,55,30.12,29.93,5,1,12,0.00
2013-8-1,80.9,69.0,61.5,66.0,61.7,59.0,94,79,52,29.94,29.77,7,1,17,0.26
2013-8-2,81.1,67.6,56.3,65.4,58.0,51.3,98,75,37,29.93,29.84,7,1,20,0.00
2013-8-3,71.1,62.9,57.8,66.1,60.8,56.0,97,93,75,29.93,29.89,5,0,10,0.41
2013-8-4,76.0,63.8,53.8,62.3,55.4,47.0,98,78,40,30.02,29.92,6,1,18,0.00
2013-8-5,76.7,62.1,47.6,59.7,52.3,46.2,97,74,39,30.09,29.96,5,1,10,0.00
2013-8-6,76.7,64.7,56.3,65.0,59.7,53.4,97,85,60,29.99,29.94,6,1,11,0.45
2013-8-7,81.6,67.0,60.2,69.6,63.6,59.0,97,89,61,30.00,29.92,7,2,14,1.57
2013-8-8,79.6,69.7,64.5,71.5,66.9,63.5,98,91,69,29.96,29.89,5,1,11,0.25
2013-8-9,80.3,72.7,68.1,72.3,68.2,66.0,98,87,67,29.93,29.84,8,2,13,0.09
2013-8-10,80.3,70.3,63.2,68.0,64.3,59.6,98,83,52,30.04,29.93,4,0,9,0.01
2013-8-11,63.1,62.4,61.3,60.5,60.2,59.6,94,92,91,30.04,30.03,0,0,0,0.00
2013-8-14,69.3,59.7,48.5,54.0,48.0,44.0,91,67,45,30.09,29.83,7,2,18,0.00
2013-8-15,73.3,58.0,43.3,54.1,48.3,41.7,96,74,39,30.17,30.06,5,1,9,0.00
2013-8-16,76.1,60.6,45.7,58.8,51.1,44.1,96,74,39,30.16,30.08,8,1,16,0.00
2013-8-17,74.6,60.8,45.8,61.0,53.2,44.2,97,78,51,30.24,30.16,7,1,15,0.00
2013-8-18,66.8,60.6,57.5,59.2,57.5,55.9,95,89,72,30.22,30.13,4,0,8,0.30
2013-8-19,78.8,65.4,58.0,68.6,61.2,56.9,98,87,62,30.14,30.00,4,0,9,0.01
2013-8-20,81.1,68.3,59.9,66.3,61.1,58.6,98,80,49,30.15,30.05,5,1,11,0.00
2013-8-21,83.4,69.2,58.1,70.3,63.7,57.0,97,84,56,30.16,30.01,4,1,9,0.00
2013-8-22,82.4,70.7,62.4,66.9,63.1,59.6,97,79,50,30.05,29.91,5,1,11,0.00
2013-8-23,70.6,63.1,56.9,65.4,60.8,54.9,98,92,71,30.10,29.91,6,0,13,1.20
2013-8-24,77.9,62.9,54.2,63.0,56.4,49.4,98,82,43,30.30,30.10,5,1,10,0.00
2013-8-25,79.6,63.0,48.5,62.5,55.0,47.4,97,78,42,30.37,30.21,4,1,9,0.00
2013-8-26,82.0,67.3,54.1,65.6,58.3,52.5,96,76,43,30.24,29.98,7,2,16,0.00
2013-8-27,80.3,70.7,61.3,69.1,64.6,59.3,97,82,62,29.98,29.86,6,1,13,0.00
2013-8-28,76.1,68.9,65.0,70.7,66.7,63.4,97,93,79,29.89,29.73,7,1,14,0.52
2013-8-29,69.1,68.7,68.3,68.2,67.8,67.4,98,97,96,29.94,29.81,2,0,5,0.00
2013-8-30,84.7,70.9,61.0,70.0,64.1,60.1,98,81,51,29.98,29.80,5,2,10,0.00
2013-8-31,85.1,72.9,64.0,68.9,65.3,61.8,98,79,49,29.82,29.73,6,2,11,0.00
2013-9-1,85.1,70.2,59.9,68.1,64.5,58.8,98,84,51,29.80,29.72,10,1,21,0.01
2013-9-2,84.7,73.2,65.3,71.0,66.1,62.3,98,81,51,29.77,29.68,6,1,13,0.01
2013-9-3,78.6,67.6,54.4,63.2,57.3,50.8,96,73,39,29.96,29.72,6,1,14,0.01
2013-9-4,79.2,62.2,49.5,59.8,53.5,47.9,98,76,43,30.07,29.96,6,1,11,0.00
2013-9-5,77.6,62.1,50.1,61.3,53.0,48.6,98,76,42,30.12,30.01,7,1,17,0.00
2013-9-6,73.2,56.6,44.3,52.5,47.2,43.0,97,75,38,30.24,30.09,5,1,9,0.00
2013-9-7,80.9,59.8,43.3,58.0,49.6,42.0,97,74,31,30.12,29.91,8,1,11,0.00
2013-9-8,83.2,67.2,53.3,65.6,58.9,50.7,96,78,49,30.00,29.84,4,1,11,0.00
2013-9-9,78.5,65.9,57.8,63.2,56.1,45.9,94,72,54,30.13,30.00,7,1,15,0.00
2013-9-10,88.2,72.5,58.9,72.5,64.7,57.8,98,79,50,30.12,30.02,7,2,12,0.00
2013-9-11,88.4,73.6,63.2,72.4,66.2,61.0,97,80,49,30.11,29.95,7,1,16,0.02
2013-9-12,87.0,71.5,61.6,70.3,62.9,57.8,98,77,46,29.97,29.70,8,2,20,0.01
2013-9-13,71.3,61.8,52.2,59.6,51.8,42.7,94,72,42,29.94,29.70,5,1,18,0.03
2013-9-14,65.3,50.6,39.9,46.9,42.1,37.8,95,75,43,30.15,29.94,5,1,11,0.00
2013-9-15,75.1,56.0,39.5,58.9,47.7,38.2,97,77,45,30.18,30.02,5,1,12,0.00
2013-9-16,67.8,57.7,51.4,56.0,52.4,48.6,95,84,55,30.21,29.98,7,1,16,0.02
2013-9-17,66.4,52.3,39.3,49.7,42.9,31.3,96,75,27,30.39,30.21,6,1,13,0.00
2013-9-18,70.3,49.0,34.0,49.2,41.1,32.5,96,78,42,30.30,30.13,8,1,14,0.01
2013-9-19,74.2,56.0,43.6,58.9,50.4,41.7,97,83,52,30.15,30.02,4,0,9,0.00
2013-9-20,79.8,62.7,48.6,62.2,55.8,47.0,98,80,51,30.04,29.86,8,1,13,0.00
2013-9-21,69.4,61.4,55.1,62.4,57.9,53.4,97,89,74,29.86,29.62,10,3,20,0.54
2013-9-22,68.3,56.0,46.5,55.9,48.1,42.2,98,78,42,29.94,29.71,5,1,13,0.00
2013-9-23,63.2,50.3,39.8,46.7,42.3,36.9,95,77,46,30.08,29.94,6,1,15,0.00
2013-9-24,69.8,49.4,36.5,50.2,42.1,34.4,98,79,38,30.10,29.93,6,1,12,0.00
2013-9-25,71.5,52.8,38.8,51.8,44.2,36.9,98,77,35,29.97,29.85,5,1,10,0.00
2013-9-26,73.2,54.4,41.1,51.4,44.7,39.3,97,75,30,30.05,29.91,6,1,12,0.00
2013-9-27,72.0,53.3,39.3,53.2,46.0,38.0,97,79,42,30.19,30.05,7,1,14,0.00
2013-9-28,63.4,51.0,40.9,55.2,45.5,39.6,98,83,56,30.27,30.19,5,1,10,0.00
2013-9-29,70.8,52.4,39.1,51.2,44.2,37.8,98,77,42,30.19,30.01,6,1,10,0.00
2013-9-30,75.1,56.1,39.1,57.9,48.0,37.5,97,78,37,30.05,29.94,4,1,9,0.00
2013-10-1,77.0,62.7,52.2,57.3,53.6,50.5,96,76,42,30.04,29.94,5,1,14,0.00
2013-10-2,80.7,61.8,46.4,59.7,52.4,45.3,98,76,38,30.06,29.98,6,1,15,0.00
2013-10-3,60.9,52.9,49.8,59.0,51.3,48.4,97,94,92,30.09,30.04,3,0,7,0.00
2013-10-4,83.0,66.1,53.8,62.6,57.3,52.1,97,77,43,30.06,29.97,5,1,11,0.00
2013-10-5,83.8,68.5,56.2,65.4,59.2,55.1,98,76,43,30.06,29.94,6,1,12,0.00